Regional Weather Roundup
Issued by NWS

Home | Current Version | Previous Version | Text Only | Print | Product List | Glossary On
Versions: 1 2 3 4 5 6 7 8 9 10 11 12 13 14 15 16 17 18 19 20 21 22 23 24 25 26 27 28 29 30 31 32 33 34 35 36 37 38 39 40 41 42 43 44 45 46 47 48 49 50
000
ASUS43 KMKX 260000
RWRWI

WISCONSIN REGIONAL WEATHER ROUNDUP
NATIONAL WEATHER SERVICE MILWAUKEE/SULLIVAN WI
700 PM CDT SAT APR 25 2015

NOTE: "FAIR" INDICATES FEW OR NO CLOUDS BELOW 12,000 FEET WITH NO
SIGNIFICANT WEATHER AND/OR OBSTRUCTIONS TO VISIBILITY.

WIZ001-002-006>008-014>016-023>028-260100-
NORTHWEST WISCONSIN

CITY           SKY/WX    TMP DP  RH WIND       PRES   REMARKS
SUPERIOR ARPT  SUNNY     38  27  63 NE13G20   30.02S WCI  30
ASHLAND        CLEAR     41  26  55 NE12      30.02R
6HR MIN TEMP:  41; 6HR MAX TEMP:  47;

HAYWARD        SUNNY     47  21  35 N14       29.94R
6HR MIN TEMP:  47; 6HR MAX TEMP:  57;

SIREN          SUNNY     55  27  34 NE17G25   29.91R
CUMBERLAND     SUNNY     55  28  35 NE13      29.88R
RICE LAKE      SUNNY     57  28  32 N16G22    29.89R
CHETEK         SUNNY     59  26  27 NE3       29.87R
LADYSMITH      CLEAR     55  27  34 N16G23    29.89R
6HR MIN TEMP:  55; 6HR MAX TEMP:  61;

EAU CLAIRE     NOT AVBL
MENOMONIE      SUNNY     60  17  19 NE10      29.86R
6HR MIN TEMP:  55; 6HR MAX TEMP:  62;

NEW RICHMOND   SUNNY     60  18  20 NE7       29.87R
OSCEOLA        SUNNY     61  24  24 N8        29.89R
$$

WIZ003>005-009-010-017-018-260100-
NORTH CENTRAL WISCONSIN

CITY           SKY/WX    TMP DP  RH WIND       PRES   REMARKS
MANITOWISH WTR CLEAR     50  15  24 N8        29.91R
ARBOR VITAE    CLEAR     55  16  22 NE10      29.89R
WOODRUFF       CLEAR     55  16  22 NE10      29.89R
RHINELANDER    CLEAR     53  11  18 E8        29.89R
6HR MIN TEMP:  49; 6HR MAX TEMP:  56;

EAGLE RIVER    CLEAR     53   6  15 NE9       29.89R
LAND O LAKES   CLEAR     50  18  28 NE12      29.92R
PHILLIPS       CLEAR     54  20  26 N13G18    29.87S
6HR MIN TEMP:  53; 6HR MAX TEMP:  57;

TOMAHAWK       CLEAR     55  17  22 NE3       29.88R
MEDFORD        CLEAR     55  21  27 NE8       29.86R
MERRILL        CLEAR     56  18  22 E7        29.86S
$$

WIZ029-030-035-036-043>047-260100-
CENTRAL WISCONSIN

CITY           SKY/WX    TMP DP  RH WIND       PRES   REMARKS
WAUSAU         CLEAR     54  12  18 E8        29.85R
6HR MIN TEMP:  53; 6HR MAX TEMP:  58;

MOSINEE        NOT AVBL
MARSHFIELD     PTCLDY    56  18  22 E8        29.85R
6HR MIN TEMP:  54; 6HR MAX TEMP:  59;

STEVENS POINT  PTCLDY    51  17  26 E12       29.87R
WAUPACA        PTCLDY    50   8  18 NE8       29.89S
6HR MIN TEMP:  50; 6HR MAX TEMP:  57;

WAUTOMA        NOT AVBL
WISC RAPIDS    PTCLDY    53  12  19 SE12      29.88R
6HR MIN TEMP:  53; 6HR MAX TEMP:  57;

CAMP DOUGLAS   NOT AVBL
$$

WIZ011>013-019>022-031-037>040-048>050-260100-
NORTHEAST WISCONSIN

CITY           SKY/WX    TMP DP  RH WIND       PRES   REMARKS
ANTIGO         CLEAR     52  16  24 E6        29.87S
SHAWANO        CLEAR     48  13  24 E9        29.91S
6HR MIN TEMP:  48; 6HR MAX TEMP:  56;

OCONTO         CLEAR     47  19  33 NE6       29.91F
STURGEON BAY   CLEAR     46  19  34 NE10      29.92F
6HR MIN TEMP:  43; 6HR MAX TEMP:  46;

GREEN BAY      PTCLDY    46  15  28 NE14      29.90S
6HR MIN TEMP:  46; 6HR MAX TEMP:  51;

MANITOWOC      NOT AVBL
APPLETON       PTCLDY    46   7  19 NE9       29.88S
CLINTONVILLE   PTCLDY    48  12  23 E9        29.89S
OSHKOSH        MOCLDY    47  25  42 NE16      29.88R
6HR MIN TEMP:  47; 6HR MAX TEMP:  52;

$$

WIZ032>034-041-042-053>061-260100-
SOUTHWEST WISCONSIN

CITY           SKY/WX    TMP DP  RH WIND       PRES   REMARKS
LA CROSSE      CLEAR     58  16  19 E10       29.85R
6HR MIN TEMP:  52; 6HR MAX TEMP:  61;

SPARTA         PTCLDY    55  14  19 E9        29.87R
VIROQUA        CLEAR     53  24  32 E10       29.84R
BOSCOBEL       CLOUDY    52  26  36 E7        29.85S
6HR MIN TEMP:  51; 6HR MAX TEMP:  54;

PRAIRIE DU CHI CLOUDY    51  30  44 NE7       29.84S
PLATTEVILLE    CLOUDY    48  37  64 NE13      29.84R
$$

WIZ056-057-062-063-064-067-068-260100-
SOUTH CENTRAL WISCONSIN

CITY           SKY/WX    TMP DP  RH WIND       PRES   REMARKS
REEDSBURG      PTCLDY    52  23  32 NE10      29.85R
BARABOO/DELLS  PTCLDY    51  20  28 NE9G17    29.85R
LONE ROCK      NOT AVBL
MINERAL POINT  CLOUDY    48  32  53 NE9       29.84R
MADISON        MOCLDY    50  27  40 E13       29.84R
6HR MIN TEMP:  48; 6HR MAX TEMP:  51;

MIDDLETON      MOCLDY    49  28  42 NE7       29.85R
WATERTOWN      PTCLDY    49  27  43 NE10G16   29.83S
MONROE         CLOUDY    45  36  70 NE14      29.83R
JANESVILLE     CLOUDY    46  32  57 NE10      29.84R
$$

WIZ051-052-058>065-066-070>072-260100-
SOUTHEAST WISCONSIN

CITY           SKY/WX    TMP DP  RH WIND       PRES   REMARKS
MILWAUKEE      MOCLDY    39  26  59 N16G26    29.86R WCI  30
6HR MIN TEMP:  39; 6HR MAX TEMP:  40;

WAUKESHA       MOCLDY    43  25  49 NE9       29.84R
MILWAUKEE/TIMM NOT AVBL
RACINE         CLOUDY    39  29  67 N17       29.85R WCI  30
6HR MIN TEMP:  39; 6HR MAX TEMP:  41;

BURLINGTON     CLOUDY    41  26  54 NE8G17    29.83R
KENOSHA        CLOUDY    41  29  62 N12       29.84R
6HR MIN TEMP:  41; 6HR MAX TEMP:  46; 6HR PCP:  0.01;

FOND DU LAC    PTCLDY    49  14  24 NE12      29.87R
6HR MIN TEMP:  49; 6HR MAX TEMP:  55;

SHEBOYGAN      MOCLDY    43  17  35 NE16      29.87R
6HR MIN TEMP:  43; 6HR MAX TEMP:  49;

WEST BEND      PTCLDY    46  19  34 NE8       29.84F
JUNEAU         PTCLDY    48  21  34 N14G21    29.85S
$$

LSZ147-162-260100-
LAKE SUPERIOR

STATION/POSITION TIME  TEMP    WIND        PRES    WAVE
                       AIR SEA DIR/SP/G            HT/PER
                 (UTC) (F)     (DEG/KT/KT) (MB)    (FT/S)
W MID LAKE BUOY  2250   36 35   60/ 12/ 14 1017.8S   2/ 5
DEVILS ISLAND    2300   37      70/ 15/ 17 1017.3R
PORT WING        2340   38      20/ 14/ 16 1016.6R
SAXON HARBOR     2340   38      30/ 13/ 16 1015.9R
$$

LMZ867-665-643>646-260100-
LAKE MICHIGAN

STATION/POSITION TIME  TEMP    WIND        PRES    WAVE
                       AIR SEA DIR/SP/G            HT/PER
                 (UTC) (F)     (DEG/KT/KT) (MB)    (FT/S)
CHAMBERS ISLAND  2300   44      10/  7/ 13 1013.2S
NORTHPORT PIER   2300   44      70/ 10/ 11 1012.9S
KEWAUNEE LAKESHO 2300   42      30/ 14/ 20 1011.7S
SHEBOYGAN LAKESH 2300   40      10/ 22/ 26 1012.2R
PORT WASHINGTON  2340   45      10/  7/ 14 1011.5S
MILWAUKEE LAKESH 2300   39      10/ 18/ 23   N/A
KENOSHA   LAKESH 2300   40      10/ 23/ 28 1009.8R
$$

TC  - TEMPERATURE IN CELSIUS
VSB - VISIBILITY IN STATUTE MILES
WCI - WIND CHILL INDEX
HX  - HEAT INDEX




USA.gov is the U.S. government's official web portal to all federal, state and local government web resources and services.